Content
SEND FEEDBACK

Daily
Averages
Monthly
Summary
United States of America

OAK GROVE, KENTUCKY


Home > North America > United States > Kentucky
Elevation: 518 feet     Latitude: 36 33N     Longitude: 087 22W

WEATHER
 
SELECT A DAY
Number of Records: 130,242;   Date Range: 4/10/01 - 8/12/14
 
SHARE

PRINT THIS DATA

[ ← Previous Day ]
WEATHER ALMANAC - FEBRUARY 18, 2013
[ Next Day → ]
[ °C ]   °F
Weather ElementAverageHighLow
Temperature50.6 °F64 °F (1:52 pm)36 °F (1:52 am)
Dewpoint35 °F46 °F (11:52 pm)19.9 °F (1:52 am)
Humidity59.1 %93 % (10:18 pm)29 % (12:52 pm)
Barometer29.95 in30.12 in (1:52 am)29.80 in (8:52 pm)
Wind Speed15.4 mph26.5 mph (12:52 pm)
Wind Gust38 mph (2:52 pm)
Weather ElementAverage
Visibility8.7 mi
Wind DirectionSSW (189.1 °)

Weather ElementTotal
Precipitation0.66 in
Heating Degree Days15 (Base 65)
Averaged from 23 records on February 18, 2013
WEATHER CONDITIONS BREAKOUT
WIND DIRECTION BREAKOUT
WEATHER BY HOUR - FEBRUARY 18, 2013
[ °C ]   °F
Local TimeTemperatureDewpointHumidityBarometerVisibilityWind DirectionWind SpeedGust SpeedPrecipitationEventsConditions
1:52 AM36.0 °F19.9 °F52 %30.12 in10.0 miSSE (160°)6.9 mphClear
2:52 AM36.0 °F21.0 °F55 %30.11 in10.0 miSSE (160°)5.8 mphClear
4:52 AM41.0 °F24.1 °F51 %30.11 in10.0 miSouth (190°)11.5 mphClear
5:52 AM41.0 °F25.0 °F53 %30.11 in10.0 miSouth (180°)11.5 mphClear
6:52 AM41.0 °F28.0 °F60 %30.12 in10.0 miSouth (180°)9.2 mphClear
8:52 AM48.9 °F32.0 °F52 %30.12 in10.0 miSSW (200°)12.7 mph20.7 mphClear
9:52 AM53.1 °F30.9 °F43 %30.10 in10.0 miSSW (200°)13.8 mph29.9 mphClear
10:52 AM55.9 °F32.0 °F40 %30.07 in10.0 miSSW (200°)20.7 mph31.1 mphClear
11:52 AM60.1 °F30.0 °F32 %30.02 in10.0 miSSW (200°)20.7 mph33.4 mphClear
12:52 PM63.0 °F30.0 °F29 %29.97 in10.0 miSSW (200°)26.5 mph35.7 mphClear
1:52 PM64.0 °F32.0 °F30 %29.94 in10.0 miSouth (190°)13.8 mph34.5 mphMostly Cloudy
2:52 PM63.0 °F32.0 °F31 %29.90 in10.0 miSouth (190°)25.3 mph38.0 mphMostly Cloudy
3:52 PM61.0 °F34.0 °F36 %29.88 in10.0 miSouth (190°)24.2 mph36.8 mphMostly Cloudy
4:52 PM59.0 °F34.0 °F39 %29.86 in10.0 miSouth (190°)18.4 mph28.8 mph0.00 inOvercast
5:52 PM53.1 °F42.1 °F66 %29.84 in10.0 miSouth (170°)15.0 mph32.2 mph0.04 inOvercast
7:52 PM51.1 °F43.0 °F74 %29.82 in7.0 miSouth (180°)16.1 mph21.9 mph0.09 inRainLight Rain
8:52 PM50.0 °F44.1 °F80 %29.80 in6.0 miSouth (170°)15.0 mph27.6 mph0.05 inRainRain
9:52 PM48.9 °F45.0 °F86 %29.81 in4.0 miSouth (180°)16.1 mph26.5 mph0.08 inRainRain
10:03 PM48.2 °F44.6 °F87 %29.88 in2.5 miWest (260°)19.6 mph28.8 mph0.09 inRainHeavy Rain
10:18 PM46.4 °F44.6 °F93 %29.88 in4.0 miSW (230°)11.5 mph20.7 mph0.13 inRainLight Rain
10:52 PM46.9 °F45.0 °F93 %29.81 in6.0 miSSE (160°)13.8 mph0.18 inRainRain
11:01 PM48.2 °F44.6 °F87 %29.82 in10.0 miSouth (180°)13.8 mph0.00 inRainLight Rain
11:52 PM48.9 °F46.0 °F90 %29.83 in10.0 miSouth (190°)11.5 mph0.00 inOvercast
Hourly data recorded from KCKV, located miles away from Oak Grove, Kentucky







STORIES FROM OUR PARTNERS